Hatteras, NC

5:20 AM EDT on October 15, 2019 (GMT -0400)
Mitchell

Weather History for KHSE - August, 2019

Change the Weather History Date:

Wednesday, August 21, 2019

  Actual Average Record
Temperature  
Mean Temperature 84 °F 78 °F  
Max Temperature 89 °F 84 °F 94 °F (1968)
Min Temperature 80 °F 73 °F 62 °F (1995)
Degree Days  
Heating Degree Days 0 0  
Month to date heating degree days 0 0  
Since 1 June heating degree days 0 3  
Since 1 July heating degree days 0 0  
Cooling Degree Days 20 13  
Month to date cooling degree days 358 290  
Year to date cooling degree days 1658 1178  
Since 1 June cooling degree days 1276 1035  
Growing Degree Days 34 (Base 50)    
Moisture  
Dew Point 78 °F    
Average Humidity 84    
Maximum Humidity 94    
Minimum Humidity 72    
Precipitation  
Precipitation 0.00 in 0.23 in 2.86 in (1908)
Month to date precipitation 7.02 4.47  
Year to date precipitation 38.74 34.73  
Snow  
Snow 0.00 in - - ()
Month to date snowfall 0.0  
Since 1 July snowfall 0.0  
Snow Depth 0.00 in    
Sea Level Pressure  
Sea Level Pressure 30.07 in    
Wind  
Wind Speed 9 mph ()    
Max Wind Speed 18 mph    
Max Gust Speed 25 mph    
Visibility 9.3 miles    
Events      
T = Trace of Precipitation, MM = Missing Value Source: Averaged Metar Reports

Daily Weather History Graph

Daily Weather History Graph

Search for Another Location

Airport or City:

Astronomy

Aug. 21, 2019 Rise Set
Actual Time 6:26 AM EDT 7:44 PM EDT
Civil Twilight 6:00 AM EDT 8:10 PM EDT
Nautical Twilight 5:28 AM EDT 8:42 PM EDT
Astronomical Twilight 4:55 AM EDT 9:15 PM EDT
Moon 11:13 PM EDT (8/21) 11:48 AM EDT (8/21)
Length of Visible Light 14h 10m
Length of Day
13h 17m
Waning Gibbous, 69% of the Moon is Illuminated
Aug 21
Waning Gibbous
Aug 23
Last Quarter
Aug 30
New
Sep 5
First Quarter
Sep 14
Full

Hourly Weather History & Observations

Time (EDT) Temp. Heat Index Dew Point Humidity Pressure Visibility Wind Dir Wind Speed Gust Speed Precip Events Conditions
12:51 AM 82.0 °F 91.6 °F 79.0 °F 90% 30.11 in 8.0 mi WSW 11.5 mph - N/A   Clear
1:51 AM 81.0 °F 88.6 °F 78.1 °F 91% 30.10 in 8.0 mi SW 9.2 mph - N/A   Clear
2:51 AM 81.0 °F 88.6 °F 78.1 °F 91% 30.09 in 8.0 mi WSW 6.9 mph - N/A   Clear
3:51 AM 81.0 °F 88.6 °F 78.1 °F 91% 30.09 in 9.0 mi WSW 6.9 mph - N/A   Clear
4:51 AM 80.1 °F 86.4 °F 78.1 °F 94% 30.09 in 8.0 mi WSW 5.8 mph - N/A   Clear
5:51 AM 80.1 °F 86.4 °F 78.1 °F 94% 30.09 in 9.0 mi WSW 6.9 mph - N/A   Clear
6:51 AM 80.1 °F 86.4 °F 78.1 °F 94% 30.10 in 6.0 mi WSW 4.6 mph - N/A   Clear
8:51 AM 82.9 °F 92.8 °F 78.1 °F 85% 30.09 in 10.0 mi SW 5.8 mph - N/A   Clear
9:51 AM 84.9 °F 96.6 °F 78.1 °F 80% 30.10 in 10.0 mi SW 8.1 mph - N/A   Clear
10:51 AM 86.0 °F 98.3 °F 78.1 °F 77% 30.10 in 10.0 mi SSW 9.2 mph - N/A   Clear
11:51 AM 87.1 °F 99.8 °F 78.1 °F 74% 30.09 in 10.0 mi SSW 8.1 mph - N/A   Clear
12:51 PM 88.0 °F 101.3 °F 78.1 °F 72% 30.08 in 10.0 mi SSW 13.8 mph - N/A   Clear
1:51 PM 88.0 °F 101.3 °F 78.1 °F 72% 30.06 in 10.0 mi SSW 13.8 mph 20.7 mph N/A   Clear
2:51 PM 87.1 °F 98.8 °F 77.0 °F 72% 30.04 in 10.0 mi SSW 10.4 mph 19.6 mph N/A   Clear
3:51 PM 86.0 °F 98.3 °F 78.1 °F 77% 30.04 in 10.0 mi SSW 15.0 mph 23.0 mph N/A   Clear
4:51 PM 87.1 °F 99.8 °F 78.1 °F 74% 30.04 in 10.0 mi SSW 15.0 mph 23.0 mph N/A   Clear
5:51 PM 84.9 °F 96.6 °F 78.1 °F 80% 30.03 in 10.0 mi SSW 17.3 mph 24.2 mph N/A   Clear
6:51 PM 82.9 °F 91.8 °F 77.0 °F 82% 30.02 in 10.0 mi SW 12.7 mph 21.9 mph N/A   Clear
7:51 PM 82.9 °F 92.8 °F 78.1 °F 85% 30.02 in 9.0 mi SW 12.7 mph 20.7 mph N/A   Clear
8:51 PM 82.9 °F 92.8 °F 78.1 °F 85% 30.03 in 9.0 mi SW 13.8 mph 21.9 mph N/A   Clear
9:51 PM 82.0 °F 90.2 °F 77.0 °F 85% 30.02 in 10.0 mi SW 12.7 mph 20.7 mph N/A   Clear
10:51 PM 82.0 °F 91.0 °F 78.1 °F 88% 30.03 in 9.0 mi SW 13.8 mph 20.7 mph N/A   Clear
11:51 PM 82.0 °F 91.0 °F 78.1 °F 88% 30.05 in 10.0 mi SW 13.8 mph 21.9 mph N/A   Clear